• In Belgium
  • List of Countries
  • For 7 days
  • Water Temperature
  • Satellite Maps
  • Weather Map
  • Weather Widgets
  • user-avatar
    Login

    Hourly Weather Oviedo

    Today, 13 November, Tuesday

    Time Temperature Precipitation Wind Pressure Humidity
    00:00 +10°C° 0 mm 1 mps 751 mmHg 93%
    01:00 +9°C° 0 mm 1 mps 751 mmHg 92%
    02:00 +9°C° 0 mm 1 mps 752 mmHg 92%
    03:00 +9°C° 0 mm 1 mps 752 mmHg 91%
    04:00 +9°C° 0 mm 1 mps 752 mmHg 90%
    05:00 +9°C° 0 mm 1 mps 752 mmHg 89%
    06:00 +9°C° 0 mm 1 mps 752 mmHg 88%
    07:00 +10°C° 0 mm 1 mps 753 mmHg 83%
    08:00 +11°C° 0 mm 1 mps 753 mmHg 78%
    09:00 +12°C° 0 mm 1 mps 753 mmHg 74%
    10:00 +14°C° 0 mm 1 mps 753 mmHg 70%
    11:00 +15°C° 0 mm 2 mps 753 mmHg 65%
    12:00 +17°C° 0 mm 2 mps 752 mmHg 61%
    13:00 +17°C° 0 mm 2 mps 752 mmHg 64%
    14:00 +17°C° 0 mm 2 mps 752 mmHg 67%
    15:00 +17°C° 0 mm 2 mps 751 mmHg 70%
    16:00 +15°C° 0 mm 2 mps 751 mmHg 78%
    17:00 +14°C° 0 mm 2 mps 751 mmHg 85%
    18:00 +12°C° 0 mm 2 mps 751 mmHg 92%
    19:00 +12°C° 0 mm 2 mps 751 mmHg 92%
    20:00 +12°C° 0 mm 2 mps 751 mmHg 91%
    21:00 +12°C° 0 mm 2 mps 751 mmHg 91%
    22:00 +12°C° 0 mm 2 mps 751 mmHg 90%
    23:00 +12°C° 0 mm 2 mps 751 mmHg 89%

    Tomorrow, 14 November, Wednesday

    Time Temperature Precipitation Wind Pressure Humidity
    00:00 +12°C° 0 mm 2 mps 751 mmHg 88%
    01:00 +12°C° 0 mm 2 mps 750 mmHg 88%
    02:00 +12°C° 0 mm 1 mps 750 mmHg 88%
    03:00 +12°C° 0 mm 1 mps 750 mmHg 87%
    04:00 +12°C° 0 mm 1 mps 750 mmHg 87%
    05:00 +12°C° 0 mm 1 mps 749 mmHg 86%
    06:00 +12°C° 0 mm 2 mps 749 mmHg 86%
    07:00 +13°C° 0 mm 2 mps 749 mmHg 83%
    08:00 +14°C° 0 mm 1 mps 749 mmHg 81%
    09:00 +15°C° 0 mm 1 mps 749 mmHg 78%
    10:00 +17°C° 0 mm 2 mps 748 mmHg 73%
    11:00 +18°C° 0 mm 2 mps 748 mmHg 68%
    12:00 +20°C° 0 mm 2 mps 748 mmHg 64%
    13:00 +20°C° 0 mm 2 mps 747 mmHg 65%
    14:00 +20°C° 0 mm 2 mps 746 mmHg 67%
    15:00 +19°C° 0 mm 2 mps 746 mmHg 68%
    16:00 +18°C° 0 mm 2 mps 746 mmHg 74%
    17:00 +16°C° 0 mm 2 mps 746 mmHg 80%
    18:00 +14°C° 0 mm 2 mps 746 mmHg 85%
    19:00 +14°C° 0 mm 2 mps 746 mmHg 84%
    20:00 +14°C° 0 mm 2 mps 746 mmHg 82%
    21:00 +14°C° 0 mm 2 mps 746 mmHg 81%
    22:00 +14°C° 0 mm 2 mps 746 mmHg 81%
    23:00 +14°C° 0 mm 2 mps 745 mmHg 81%

    Day after tomorrow, 15 November, Thursday

    Time Temperature Precipitation Wind Pressure Humidity
    00:00 +14°C° 0 mm 2 mps 745 mmHg 81%
    01:00 +14°C° 0 mm 2 mps 745 mmHg 81%
    02:00 +15°C° 0 mm 2 mps 745 mmHg 82%
    03:00 +15°C° 0 mm 2 mps 745 mmHg 82%
    04:00 +15°C° 0 mm 2 mps 745 mmHg 83%
    05:00 +14°C° 0 mm 2 mps 745 mmHg 84%
    06:00 +14°C° 0 mm 1 mps 745 mmHg 85%
    07:00 +15°C° 0 mm 2 mps 745 mmHg 84%
    08:00 +16°C° 0 mm 2 mps 745 mmHg 82%
    09:00 +16°C° 0 mm 2 mps 746 mmHg 81%
    10:00 +19°C° 0 mm 1 mps 746 mmHg 75%
    11:00 +20°C° 0 mm 1 mps 746 mmHg 69%
    12:00 +22°C° 0 mm 1 mps 746 mmHg 64%
    13:00 +21°C° 0 mm 1 mps 746 mmHg 66%
    14:00 +21°C° 0 mm 1 mps 746 mmHg 68%
    15:00 +19°C° 0 mm 2 mps 746 mmHg 70%
    16:00 +19°C° 0 mm 1 mps 746 mmHg 76%
    17:00 +16°C° 0 mm 1 mps 746 mmHg 81%
    18:00 +15°C° 0 mm 1 mps 746 mmHg 86%
    19:00 +14°C° 0 mm 1 mps 747 mmHg 85%
    20:00 +14°C° 0 mm 1 mps 747 mmHg 85%
    21:00 +14°C° 0 mm 1 mps 747 mmHg 85%
    22:00 +14°C° 0 mm 1 mps 747 mmHg 84%
    23:00 +14°C° 0 mm 1 mps 748 mmHg 84%

    16 November, Friday

    Time Temperature Precipitation Wind Pressure Humidity
    00:00 +14°C° 0 mm 1 mps 748 mmHg 84%
    01:00 +14°C° 0 mm 1 mps 748 mmHg 84%
    02:00 +13°C° 0 mm 1 mps 747 mmHg 85%
    03:00 +13°C° 0 mm 1 mps 747 mmHg 85%
    04:00 +13°C° 0 mm 1 mps 747 mmHg 86%
    05:00 +13°C° 0 mm 1 mps 747 mmHg 86%
    06:00 +13°C° 0 mm 1 mps 747 mmHg 87%
    07:00 +14°C° 0 mm 1 mps 747 mmHg 84%
    08:00 +15°C° 0 mm 1 mps 747 mmHg 82%
    09:00 +16°C° 0 mm 2 mps 748 mmHg 80%
    10:00 +18°C° 0 mm 2 mps 747 mmHg 74%
    11:00 +19°C° 0 mm 2 mps 747 mmHg 69%
    12:00 +21°C° 0 mm 2 mps 747 mmHg 64%
    13:00 +21°C° 0 mm 2 mps 746 mmHg 65%
    14:00 +20°C° 0 mm 2 mps 746 mmHg 66%
    15:00 +20°C° 0 mm 2 mps 745 mmHg 68%
    16:00 +19°C° 0 mm 2 mps 745 mmHg 73%
    17:00 +17°C° 0 mm 2 mps 745 mmHg 79%
    18:00 +16°C° 0 mm 2 mps 745 mmHg 84%
    19:00 +15°C° 0 mm 2 mps 746 mmHg 84%
    20:00 +15°C° 0 mm 2 mps 746 mmHg 84%
    21:00 +15°C° 0 mm 2 mps 746 mmHg 84%
    22:00 +15°C° 0 mm 2 mps 746 mmHg 84%
    23:00 +15°C° 0 mm 2 mps 746 mmHg 84%

    17 November, Saturday

    Time Temperature Precipitation Wind Pressure Humidity
    00:00 +15°C° 0 mm 2 mps 746 mmHg 84%
    01:00 +15°C° 0 mm 2 mps 746 mmHg 84%
    02:00 +15°C° 0 mm 2 mps 745 mmHg 84%
    03:00 +14°C° 0 mm 2 mps 745 mmHg 84%
    04:00 +14°C° 0 mm 2 mps 745 mmHg 84%
    05:00 +13°C° 0 mm 3 mps 745 mmHg 84%
    06:00 +13°C° 0 mm 3 mps 745 mmHg 84%
    07:00 +14°C° 0 mm 3 mps 745 mmHg 82%
    08:00 +16°C° 0 mm 3 mps 745 mmHg 80%
    09:00 +16°C° 0 mm 3 mps 745 mmHg 78%
    10:00 +17°C° 0 mm 3 mps 745 mmHg 72%
    11:00 +19°C° 0 mm 2 mps 745 mmHg 67%
    12:00 +20°C° 0 mm 2 mps 745 mmHg 62%
    13:00 +20°C° 0 mm 2 mps 744 mmHg 63%
    14:00 +20°C° 0 mm 2 mps 744 mmHg 64%
    15:00 +19°C° 0 mm 2 mps 744 mmHg 65%
    16:00 +18°C° 0 mm 2 mps 744 mmHg 71%
    17:00 +16°C° 0 mm 2 mps 744 mmHg 76%
    18:00 +15°C° 0 mm 2 mps 743 mmHg 81%
    19:00 +15°C° 0 mm 2 mps 744 mmHg 81%
    20:00 +14°C° 0 mm 2 mps 744 mmHg 81%
    21:00 +14°C° 0 mm 2 mps 744 mmHg 81%
    22:00 +14°C° 0 mm 2 mps 743 mmHg 81%
    23:00 +14°C° 0 mm 2 mps 743 mmHg 81%

    18 November, Sunday

    Time Temperature Precipitation Wind Pressure Humidity
    00:00 +14°C° 0 mm 2 mps 743 mmHg 82%
    01:00 +13°C° 0 mm 2 mps 743 mmHg 82%
    02:00 +13°C° 0 mm 2 mps 742 mmHg 83%
    03:00 +13°C° 0 mm 2 mps 742 mmHg 84%
    04:00 +13°C° 0 mm 2 mps 742 mmHg 84%
    05:00 +13°C° 0 mm 2 mps 742 mmHg 84%
    06:00 +12°C° 0 mm 2 mps 742 mmHg 85%
    07:00 +13°C° 0 mm 2 mps 742 mmHg 82%
    08:00 +14°C° 0 mm 2 mps 742 mmHg 80%
    09:00 +15°C° 0 mm 2 mps 742 mmHg 78%
    10:00 +16°C° 0 mm 2 mps 741 mmHg 72%
    11:00 +18°C° 0 mm 2 mps 741 mmHg 67%
    12:00 +19°C° 0 mm 2 mps 741 mmHg 61%
    13:00 +19°C° 0 mm 2 mps 740 mmHg 63%
    14:00 +18°C° 0 mm 2 mps 740 mmHg 64%
    15:00 +18°C° 0 mm 2 mps 740 mmHg 66%
    16:00 +16°C° 0 mm 2 mps 740 mmHg 72%
    17:00 +15°C° 0 mm 2 mps 740 mmHg 77%
    18:00 +13°C° 0 mm 2 mps 740 mmHg 83%
    19:00 +13°C° 0 mm 2 mps 740 mmHg 82%
    20:00 +13°C° 0 mm 2 mps 740 mmHg 82%
    21:00 +12°C° 0 mm 2 mps 740 mmHg 81%
    22:00 +12°C° 0 mm 2 mps 740 mmHg 81%
    23:00 +12°C° 0 mm 2 mps 740 mmHg 82%
    Show more